Regional Weather Roundup
Issued by NWS Portland, ME

Home | Current Version | Previous Version | Text Only | Print | Product List | Glossary On
Versions: 1 2 3 4 5 6 7 8 9 10 11 12 13 14 15 16 17 18 19 20 21 22 23 24 25 26 27 28 29 30 31 32 33 34 35 36 37 38 39 40 41 42 43 44 45 46 47 48 49 50
000
ASUS41 KGYX 201705
RWRGYX
WEATHER ROUNDUP FOR MAINE AND NEW HAMPSHIRE
NATIONAL WEATHER SERVICE GRAY ME
100 PM EDT SUN APR 20 2014

MEZ002-005-006-010-012-015-018-020-021-024-026-027-029-201800-
MAINE

CITY           SKY/WX    TMP DP  RH WIND       PRES   REMARKS
PORTLAND       SUNNY     49  21  33 S13       30.48S
SANFORD        SUNNY     55   1  11 SE9       30.47S
BAR HARBOR     SUNNY     52  21  30 E7        30.42F
WISCASSET      SUNNY     50  24  36 S9        30.48S
ROCKLAND       SUNNY     46  25  42 SE9       30.45F
FRYEBURG       SUNNY     56   9  15 VRB7      30.43F
LEWISTONAUBURN SUNNY     52  18  25 CALM      30.45F
AUGUSTA        SUNNY     51  13  21 CALM      30.44F
WATERVILLE     SUNNY     50  16  25 E5        30.39F
BANGOR         MOSUNNY   51  16  24 VRB3      30.42F
GREENVILLE       N/A     45  14  28 VRB3      30.37F
MILLINOCKET    SUNNY     49  18  29 N5        30.42F
HOULTON        SUNNY     46  13  26 VRB6      30.40F
PRESQUE ISLE   MOSUNNY   43  12  28 CALM      30.42F
FRENCHVILLE    MOSUNNY   39  12  33 CALM      30.38F
CARIBOU        MOSUNNY   43  14  31 CALM      30.39F
$$

NHZ002-005-008-009-011-012-014-201800-
NEW HAMPSHIRE

CITY           SKY/WX    TMP DP  RH WIND       PRES   REMARKS
PORTSMOUTH     MOSUNNY   49  19  31 E8        30.48F
ROCHESTER      SUNNY     52  19  27 SE9       30.46F
NASHUA         SUNNY     53  16  23 VRB6      30.48F
MANCHESTER     MOSUNNY   53  13  20 VRB5      30.45F
CONCORD        SUNNY     54  12  18 SE9       30.45F
LACONIA        SUNNY     50  14  23 NE7       30.44F
PLYMOUTH         N/A     55   9  16 SE3       30.41F
BERLIN         SUNNY     53   4  13 VRB3      30.38F
WHITEFIELD     SUNNY     56   5  13 CALM      30.38F
JAFFREY        SUNNY     52  12  20 CALM      30.43F
LEBANON        SUNNY     55  11  17 W7        30.42F
MT WASHINGTON  MOSUNNY   32   9  37 SW6         N/A
$$

VTZ005-007-008-201800-
VERMONT

CITY           SKY/WX    TMP DP  RH WIND       PRES   REMARKS
ST JOHNSBURY     N/A     54   7  15 MISG      30.39F
MONTPELIER     SUNNY     51  10  19 CALM      30.43F
BURLINGTON     MOSUNNY   54  20  26 VRB6      30.42F
$$

MAZ007-012-024-CTZ003-RIZ002-NYZ038-NYZ072-201800-
SOUTHERN NEW ENGLAND AND NY

CITY           SKY/WX    TMP DP  RH WIND       PRES   REMARKS
BOSTON         MOSUNNY   47  28  47 SE10      30.51F
WORCESTER      SUNNY     50  14  23 VRB5      30.45F
NANTUCKET      MOSUNNY   48  30  49 NE10      30.48F
PROVIDENCE     MOSUNNY   53  19  26 VRB7      30.48F
HARTFORD       MOSUNNY   55  15  20 SW5       30.45F
ALBANY         PTSUNNY   56  19  23 S6        30.44F
NEW YORK CITY  PTSUNNY   53  26  35 NE7       30.47F
$$

ANZ081-ANZ082-ANZ150-NHZ014-MEZ023>029-201800-
COASTAL MARINE OBSERVATIONS

STATION/POSITION TIME  TEMP    WIND        PRES    WAVE
                       AIR SEA DIR/SP/G            HT/PER
                 (UTC) (F)     (DEG/KT/KT) (MB)    (FT/S)
MOUNT DESERT ROC 1700   42                 1030.9F
MATINICUS ROCK   1600   43     110/  7/  7 1032.3F
PORTLAND WX BUOY 1700   42 43  160/ 10/ 12 1032.5F   2/ 8
WELLS            1700   42 40  180/  9/ 11 1032.1S
ISLE OF SHOALS   1600   40     100/  5/  6 1032.9F
JEFFREYS LEDGE   1600      42                N/A     3/ 8
CASHES LEDGE BUO 1700   41 41   70/  8/ 10 1032.3F   3/ 5
$$

.............KEY..............
   WCI - WIND CHILL
   TC  - TEMPERATURE IN CELSIUS
   VSB - VISIBILITY IN MILES
   HX  - HEAT INDEX
   FAIR- INDICATES FEW OR NO CLOUDS BELOW 12,000 FT, WITH NO
         SIGNIFICANT WEATHER AND/OR OBSTRUCTIONS TO VISIBILITY.





USA.gov is the U.S. government's official web portal to all federal, state and local government web resources and services.